User: anonymous   Login
Location: Holmes Observatory
(37.1039°N, 122.0513°W)
Time: 15:53:38
(UTC-08:00)
Language:

Cosmos 921 Rocket - Orbit

View from above orbital plane
View from above orbital plane
View from above satellite
View from above satellite

Ground track
Ground track

The orbit data is extracted from the following two-line orbital elements,

1 10096U 77055B   14327.16538774  .00000561  00000-0  62327-4 0  5945
2 10096 075.8350 223.4538 0042377 072.8683 078.7119 14.87989013 22850
Epoch (UTC): 23 November 2014 03:58:09
Eccentricity: 0.0042377
inclination: 75.8350°
perigee height: 574 km
apogee height: 634 km
right ascension of ascending node: 223.4538°
argument of perigee: 72.8683°
revolutions per day: 14.87989013
mean anomaly at epoch: 78.7119°
orbit number at epoch: 2285

The dashed part of the orbit path shows where the satellite is in the earth's shadow,  

DLR